ONEWEB-0275 (48993 NORAD) Tracking and Keplerian Element Data

This shows tracking and keplerian element data for the satellite.

Feedback or suggestion? Click here.




ElementValue
Catalog48993
NameONEWEB-0275
Epoch Orbit565
Epoch Day211.25001157
Epoch Year2021
RAAN227.4468
Inclination87.4284
Eccentricity0.0008185
Argument of Perigee165.6627
Mean Anonmoly254.9201
Mean Motion14.92655219
Decay Rate-0.01487598
L11 48993U 21060AC 21211.25001157 -.01487598 00000-0 -15649+0 0 9998
L22 48993 87.4284 227.4468 0008185 165.6627 254.9201 14.92655219 5659

Live tracking and technical data element details for ONEWEB-0275 (NORAD 48993). ONEWEB-0275 can be tracked NOW for your location showing map with azimuth and elevation plus other details from your city location.

Track the satellite on the map from your city or location and see movement details for azimuth, elevation, latitude, longitude, range, height, and movement on the map or in text.







IsCatalogInMostPopularTable: catalog: 48993, numindb: 2
Update: records affected: 1



GetName: 48993 ONEWEB-0275

Hit Count: updated at: Sat, 31 Jul 2021 15:16:01 GMT